Year,Month,Day,Hour,Minute,Value (Times are PST for temperature in C)
2008,08,31,00,00,10.30
2008,08,31,00,01,10.30
2008,08,31,00,02,10.30
2008,08,31,00,03,10.30
2008,08,31,00,04,10.30
2008,08,31,00,05,10.30
2008,08,31,00,06,10.30
2008,08,31,00,07,10.30
2008,08,31,00,08,10.30
2008,08,31,00,09,10.30
2008,08,31,00,10,10.30
2008,08,31,00,11,10.20
2008,08,31,00,12,10.20
2008,08,31,00,13,10.20
2008,08,31,00,14,10.10
2008,08,31,00,15,10.10
2008,08,31,00,16,10.10
2008,08,31,00,17,10.10
2008,08,31,00,18,10.10
2008,08,31,00,19,10.10
2008,08,31,00,20,10.20
2008,08,31,00,21,10.20
2008,08,31,00,22,10.30
2008,08,31,00,23,10.40
2008,08,31,00,24,10.40
2008,08,31,00,25,10.50
2008,08,31,00,26,10.60
2008,08,31,00,27,10.70
2008,08,31,00,28,10.70
2008,08,31,00,29,10.70
2008,08,31,00,30,10.70
2008,08,31,00,31,10.70
2008,08,31,00,32,10.70
2008,08,31,00,33,10.70
2008,08,31,00,34,10.70
2008,08,31,00,35,10.70
2008,08,31,00,36,10.70
2008,08,31,00,37,10.70
2008,08,31,00,38,10.70
2008,08,31,00,39,10.80
2008,08,31,00,40,10.80
2008,08,31,00,41,10.80
2008,08,31,00,42,10.80
2008,08,31,00,43,10.80
2008,08,31,00,44,10.80
2008,08,31,00,45,10.80
2008,08,31,00,46,10.80
2008,08,31,00,47,10.80
2008,08,31,00,48,10.80
2008,08,31,00,49,10.80
2008,08,31,00,50,10.80
2008,08,31,00,51,10.80
2008,08,31,00,52,10.80
2008,08,31,00,53,10.80
2008,08,31,00,54,10.80
2008,08,31,00,55,10.80
2008,08,31,00,56,10.80
2008,08,31,00,57,10.90
2008,08,31,00,58,10.90
2008,08,31,00,59,10.90
2008,08,31,01,00,10.90
2008,08,31,01,01,10.90
2008,08,31,01,02,10.90
2008,08,31,01,03,10.90
2008,08,31,01,04,10.90
2008,08,31,01,05,10.90
2008,08,31,01,06,11.00
2008,08,31,01,07,11.00
2008,08,31,01,08,11.10
2008,08,31,01,09,11.10
2008,08,31,01,10,11.10
2008,08,31,01,11,11.10
2008,08,31,01,12,11.10
2008,08,31,01,13,11.10
2008,08,31,01,14,11.10
2008,08,31,01,15,11.10
2008,08,31,01,16,11.20
2008,08,31,01,17,11.20
2008,08,31,01,18,11.20
2008,08,31,01,19,11.20
2008,08,31,01,20,11.20
2008,08,31,01,21,11.20
2008,08,31,01,22,11.20
2008,08,31,01,23,11.20
2008,08,31,01,24,11.20
2008,08,31,01,25,11.20
2008,08,31,01,26,11.20
2008,08,31,01,27,11.20
2008,08,31,01,28,11.20
2008,08,31,01,29,11.20
2008,08,31,01,30,11.20
2008,08,31,01,31,11.20
2008,08,31,01,32,11.20
2008,08,31,01,33,11.20
2008,08,31,01,34,11.20
2008,08,31,01,35,11.20
2008,08,31,01,36,11.20
2008,08,31,01,37,11.20
2008,08,31,01,38,11.20
2008,08,31,01,39,11.20
2008,08,31,01,40,11.20
2008,08,31,01,41,11.20
2008,08,31,01,42,11.20
2008,08,31,01,43,11.20
2008,08,31,01,44,11.20
2008,08,31,01,45,11.20
2008,08,31,01,46,11.10
2008,08,31,01,47,11.10
2008,08,31,01,48,11.10
2008,08,31,01,49,11.10
2008,08,31,01,50,11.10
2008,08,31,01,51,11.10
2008,08,31,01,52,11.10
2008,08,31,01,53,11.20
2008,08,31,01,54,11.20
2008,08,31,01,55,11.20
2008,08,31,01,56,11.20
2008,08,31,01,57,11.20
2008,08,31,01,58,11.20
2008,08,31,01,59,11.20
2008,08,31,02,00,11.20
2008,08,31,02,01,11.30
2008,08,31,02,02,11.30
2008,08,31,02,03,11.30
2008,08,31,02,04,11.30
2008,08,31,02,05,11.30
2008,08,31,02,06,11.30
2008,08,31,02,07,11.30
2008,08,31,02,08,11.30
2008,08,31,02,09,11.30
2008,08,31,02,10,11.30
2008,08,31,02,11,11.30
2008,08,31,02,12,11.30
2008,08,31,02,13,11.30
2008,08,31,02,14,11.30
2008,08,31,02,15,11.30
2008,08,31,02,16,11.30
2008,08,31,02,17,11.30
2008,08,31,02,18,11.30
2008,08,31,02,19,11.30
2008,08,31,02,20,11.30
2008,08,31,02,21,11.30
2008,08,31,02,22,11.30
2008,08,31,02,23,11.30
2008,08,31,02,24,11.40
2008,08,31,02,25,11.40
2008,08,31,02,26,11.40
2008,08,31,02,27,11.40
2008,08,31,02,28,11.40
2008,08,31,02,29,11.40
2008,08,31,02,30,11.40
2008,08,31,02,31,11.40
2008,08,31,02,32,11.30
2008,08,31,02,33,11.30
2008,08,31,02,34,11.30
2008,08,31,02,35,11.30
2008,08,31,02,36,11.30
2008,08,31,02,37,11.30
2008,08,31,02,38,11.30
2008,08,31,02,39,11.30
2008,08,31,02,40,11.30
2008,08,31,02,41,11.30
2008,08,31,02,42,11.30
2008,08,31,02,43,11.40
2008,08,31,02,44,11.40
2008,08,31,02,45,11.40
2008,08,31,02,46,11.40
2008,08,31,02,47,11.40
2008,08,31,02,48,11.40
2008,08,31,02,49,11.40
2008,08,31,02,50,11.40
2008,08,31,02,51,11.40
2008,08,31,02,52,11.30
2008,08,31,02,53,11.30
2008,08,31,02,54,11.30
2008,08,31,02,55,11.30
2008,08,31,02,56,11.40
2008,08,31,02,57,11.40
2008,08,31,02,58,11.40
2008,08,31,02,59,11.40
2008,08,31,03,00,11.50
2008,08,31,03,01,11.50
2008,08,31,03,02,11.50
2008,08,31,03,03,11.40
2008,08,31,03,04,11.40
2008,08,31,03,05,11.40
2008,08,31,03,06,11.40
2008,08,31,03,07,11.40
2008,08,31,03,08,11.40
2008,08,31,03,09,11.40
2008,08,31,03,10,11.40
2008,08,31,03,11,11.40
2008,08,31,03,12,11.30
2008,08,31,03,13,11.30
2008,08,31,03,14,11.30
2008,08,31,03,15,11.30
2008,08,31,03,16,11.30
2008,08,31,03,17,11.30
2008,08,31,03,18,11.30
2008,08,31,03,19,11.30
2008,08,31,03,20,11.30
2008,08,31,03,21,11.30
2008,08,31,03,22,11.30
2008,08,31,03,23,11.30
2008,08,31,03,24,11.30
2008,08,31,03,25,11.30
2008,08,31,03,26,11.30
2008,08,31,03,27,11.30
2008,08,31,03,28,11.30
2008,08,31,03,29,11.30
2008,08,31,03,30,11.30
2008,08,31,03,31,11.30
2008,08,31,03,32,11.30
2008,08,31,03,33,11.30
2008,08,31,03,34,11.30
2008,08,31,03,35,11.30
2008,08,31,03,36,11.20
2008,08,31,03,37,11.20
2008,08,31,03,38,11.20
2008,08,31,03,39,11.20
2008,08,31,03,40,11.20
2008,08,31,03,41,11.20
2008,08,31,03,42,11.20
2008,08,31,03,43,11.20
2008,08,31,03,44,11.10
2008,08,31,03,45,11.10
2008,08,31,03,46,11.10
2008,08,31,03,47,11.10
2008,08,31,03,48,11.10
2008,08,31,03,49,11.10
2008,08,31,03,50,11.10
2008,08,31,03,51,11.10
2008,08,31,03,52,11.10
2008,08,31,03,53,11.10
2008,08,31,03,54,11.10
2008,08,31,03,55,11.10
2008,08,31,03,56,11.10
2008,08,31,03,57,11.20
2008,08,31,03,58,11.20
2008,08,31,03,59,11.20
2008,08,31,04,00,11.20
2008,08,31,04,01,11.20
2008,08,31,04,02,11.20
2008,08,31,04,03,11.20
2008,08,31,04,04,11.20
2008,08,31,04,05,11.20
2008,08,31,04,06,11.20
2008,08,31,04,07,11.20
2008,08,31,04,08,11.20
2008,08,31,04,09,11.20
2008,08,31,04,10,11.20
2008,08,31,04,11,11.20
2008,08,31,04,12,11.30
2008,08,31,04,13,11.30
2008,08,31,04,14,11.30
2008,08,31,04,15,11.40
2008,08,31,04,16,11.40
2008,08,31,04,17,11.40
2008,08,31,04,18,11.50
2008,08,31,04,19,11.50
2008,08,31,04,20,11.50
2008,08,31,04,21,11.50
2008,08,31,04,22,11.50
2008,08,31,04,23,11.50
2008,08,31,04,24,11.60
2008,08,31,04,25,11.60
2008,08,31,04,26,11.50
2008,08,31,04,27,11.50
2008,08,31,04,28,11.50
2008,08,31,04,29,11.40
2008,08,31,04,30,11.40
2008,08,31,04,31,11.40
2008,08,31,04,32,11.40
2008,08,31,04,33,11.30
2008,08,31,04,34,11.30
2008,08,31,04,35,11.30
2008,08,31,04,36,11.30
2008,08,31,04,37,11.30
2008,08,31,04,38,11.30
2008,08,31,04,39,11.30
2008,08,31,04,40,11.30
2008,08,31,04,41,11.30
2008,08,31,04,42,11.20
2008,08,31,04,43,11.20
2008,08,31,04,44,11.20
2008,08,31,04,45,11.20
2008,08,31,04,46,11.20
2008,08,31,04,47,11.20
2008,08,31,04,48,11.20
2008,08,31,04,49,11.20
2008,08,31,04,50,11.20
2008,08,31,04,51,11.20
2008,08,31,04,52,11.20
2008,08,31,04,53,11.20
2008,08,31,04,54,11.20
2008,08,31,04,55,11.20
2008,08,31,04,56,11.10
2008,08,31,04,57,11.10
2008,08,31,04,58,11.20
2008,08,31,04,59,11.20
2008,08,31,05,00,11.20
2008,08,31,05,01,11.20
2008,08,31,05,02,11.20
2008,08,31,05,03,11.20
2008,08,31,05,04,11.20
2008,08,31,05,05,11.20
2008,08,31,05,06,11.20
2008,08,31,05,07,11.20
2008,08,31,05,08,11.20
2008,08,31,05,09,11.20
2008,08,31,05,10,11.20
2008,08,31,05,11,11.20
2008,08,31,05,12,11.20
2008,08,31,05,13,11.20
2008,08,31,05,14,11.30
2008,08,31,05,15,11.30
2008,08,31,05,16,11.30
2008,08,31,05,17,11.30
2008,08,31,05,18,11.30
2008,08,31,05,19,11.30
2008,08,31,05,20,11.30
2008,08,31,05,21,11.30
2008,08,31,05,22,11.30
2008,08,31,05,23,11.30
2008,08,31,05,24,11.30
2008,08,31,05,25,11.40
2008,08,31,05,26,11.40
2008,08,31,05,27,11.40
2008,08,31,05,28,11.40
2008,08,31,05,29,11.40
2008,08,31,05,30,11.40
2008,08,31,05,31,11.40
2008,08,31,05,32,11.40
2008,08,31,05,33,11.50
2008,08,31,05,34,11.50
2008,08,31,05,35,11.50
2008,08,31,05,36,11.50
2008,08,31,05,37,11.50
2008,08,31,05,38,11.50
2008,08,31,05,39,11.50
2008,08,31,05,40,11.50
2008,08,31,05,41,11.50
2008,08,31,05,42,11.50
2008,08,31,05,43,11.50
2008,08,31,05,44,11.60
2008,08,31,05,45,11.60
2008,08,31,05,46,11.60
2008,08,31,05,47,11.60
2008,08,31,05,48,11.60
2008,08,31,05,49,11.60
2008,08,31,05,50,11.60
2008,08,31,05,51,11.60
2008,08,31,05,52,11.60
2008,08,31,05,53,11.70
2008,08,31,05,54,11.70
2008,08,31,05,55,11.70
2008,08,31,05,56,11.70
2008,08,31,05,57,11.70
2008,08,31,05,58,11.70
2008,08,31,05,59,11.70
2008,08,31,06,00,11.80
2008,08,31,06,01,11.80
2008,08,31,06,02,11.80
2008,08,31,06,03,11.80
2008,08,31,06,04,11.80
2008,08,31,06,05,11.80
2008,08,31,06,06,11.80
2008,08,31,06,07,11.80
2008,08,31,06,08,11.80
2008,08,31,06,09,11.80
2008,08,31,06,10,11.80
2008,08,31,06,11,11.80
2008,08,31,06,12,11.90
2008,08,31,06,13,11.90
2008,08,31,06,14,11.90
2008,08,31,06,15,11.90
2008,08,31,06,16,11.90
2008,08,31,06,17,11.90
2008,08,31,06,18,11.90
2008,08,31,06,19,11.90
2008,08,31,06,20,11.90
2008,08,31,06,21,11.90
2008,08,31,06,22,11.90
2008,08,31,06,23,11.90
2008,08,31,06,24,11.90
2008,08,31,06,25,11.90
2008,08,31,06,26,11.90
2008,08,31,06,27,11.90
2008,08,31,06,28,11.90
2008,08,31,06,29,11.90
2008,08,31,06,30,11.90
2008,08,31,06,31,11.90
2008,08,31,06,32,11.90
2008,08,31,06,33,11.90
2008,08,31,06,34,11.90
2008,08,31,06,35,11.90
2008,08,31,06,36,11.90
2008,08,31,06,37,11.90
2008,08,31,06,38,11.90
2008,08,31,06,39,11.90
2008,08,31,06,40,11.90
2008,08,31,06,41,11.90
2008,08,31,06,42,11.90
2008,08,31,06,43,11.90
2008,08,31,06,44,11.90
2008,08,31,06,45,11.90
2008,08,31,06,46,11.90
2008,08,31,06,47,11.90
2008,08,31,06,48,11.90
2008,08,31,06,49,11.90
2008,08,31,06,50,11.90
2008,08,31,06,51,11.90
2008,08,31,06,52,11.90
2008,08,31,06,53,11.90
2008,08,31,06,54,11.90
2008,08,31,06,55,11.90
2008,08,31,06,56,11.90
2008,08,31,06,57,11.90
2008,08,31,06,58,11.80
2008,08,31,06,59,11.80
2008,08,31,07,00,11.80
2008,08,31,07,01,11.80
2008,08,31,07,02,11.80
2008,08,31,07,03,11.80
2008,08,31,07,04,11.80
2008,08,31,07,05,11.80
2008,08,31,07,06,11.90
2008,08,31,07,07,11.80
2008,08,31,07,08,11.80
2008,08,31,07,09,11.90
2008,08,31,07,10,11.90
2008,08,31,07,11,11.90
2008,08,31,07,12,11.90
2008,08,31,07,13,11.90
2008,08,31,07,14,11.90
2008,08,31,07,15,11.90
2008,08,31,07,16,11.90
2008,08,31,07,17,11.90
2008,08,31,07,18,11.90
2008,08,31,07,19,11.90
2008,08,31,07,20,11.90
2008,08,31,07,21,11.90
2008,08,31,07,22,11.90
2008,08,31,07,23,11.90
2008,08,31,07,24,11.90
2008,08,31,07,25,11.90
2008,08,31,07,26,11.90
2008,08,31,07,27,11.90
2008,08,31,07,28,11.90
2008,08,31,07,29,12.00
2008,08,31,07,30,12.00
2008,08,31,07,31,12.00
2008,08,31,07,32,12.00
2008,08,31,07,33,12.00
2008,08,31,07,34,12.00
2008,08,31,07,35,12.00
2008,08,31,07,36,12.00
2008,08,31,07,37,12.00
2008,08,31,07,38,12.00
2008,08,31,07,39,12.00
2008,08,31,07,40,12.10
2008,08,31,07,41,12.10
2008,08,31,07,42,12.10
2008,08,31,07,43,12.10
2008,08,31,07,44,12.10
2008,08,31,07,45,12.10
2008,08,31,07,46,12.10
2008,08,31,07,47,12.10
2008,08,31,07,48,12.10
2008,08,31,07,49,12.20
2008,08,31,07,50,12.20
2008,08,31,07,51,12.20
2008,08,31,07,52,12.20
2008,08,31,07,53,12.20
2008,08,31,07,54,12.20
2008,08,31,07,55,12.20
2008,08,31,07,56,12.20
2008,08,31,07,57,12.20
2008,08,31,07,58,12.20
2008,08,31,07,59,12.20
2008,08,31,08,00,12.20
2008,08,31,08,01,12.20
2008,08,31,08,02,12.20
2008,08,31,08,03,12.20
2008,08,31,08,04,12.20
2008,08,31,08,05,12.20
2008,08,31,08,06,12.20
2008,08,31,08,07,12.20
2008,08,31,08,08,12.20
2008,08,31,08,09,12.20
2008,08,31,08,10,12.20
2008,08,31,08,11,12.20
2008,08,31,08,12,12.20
2008,08,31,08,13,12.20
2008,08,31,08,14,12.20
2008,08,31,08,15,12.20
2008,08,31,08,16,12.20
2008,08,31,08,17,12.20
2008,08,31,08,18,12.20
2008,08,31,08,19,12.30
2008,08,31,08,20,12.30
2008,08,31,08,21,12.30
2008,08,31,08,22,12.30
2008,08,31,08,23,12.30
2008,08,31,08,24,12.30
2008,08,31,08,25,12.30
2008,08,31,08,26,12.30
2008,08,31,08,27,12.30
2008,08,31,08,28,12.30
2008,08,31,08,29,12.30
2008,08,31,08,30,12.30
2008,08,31,08,31,12.40
2008,08,31,08,32,12.40
2008,08,31,08,33,12.40
2008,08,31,08,34,12.40
2008,08,31,08,35,12.40
2008,08,31,08,36,12.40
2008,08,31,08,37,12.40
2008,08,31,08,38,12.40
2008,08,31,08,39,12.40
2008,08,31,08,40,12.50
2008,08,31,08,41,12.50
2008,08,31,08,42,12.50
2008,08,31,08,43,12.50
2008,08,31,08,44,12.50
2008,08,31,08,45,12.60
2008,08,31,08,46,12.60
2008,08,31,08,47,12.60
2008,08,31,08,48,12.60
2008,08,31,08,49,12.60
2008,08,31,08,50,12.60
2008,08,31,08,51,12.60
2008,08,31,08,52,12.60
2008,08,31,08,53,12.70
2008,08,31,08,54,12.70
2008,08,31,08,55,12.70
2008,08,31,08,56,12.70
2008,08,31,08,57,12.70
2008,08,31,08,58,12.70
2008,08,31,08,59,12.70
2008,08,31,09,00,12.80
2008,08,31,09,01,12.80
2008,08,31,09,02,12.80
2008,08,31,09,03,12.80
2008,08,31,09,04,12.80
2008,08,31,09,05,12.80
2008,08,31,09,06,12.80
2008,08,31,09,07,12.80
2008,08,31,09,08,12.80
2008,08,31,09,09,12.80
2008,08,31,09,10,12.80
2008,08,31,09,11,12.80
2008,08,31,09,12,12.80
2008,08,31,09,13,12.80
2008,08,31,09,14,12.80
2008,08,31,09,15,12.90
2008,08,31,09,16,12.90
2008,08,31,09,17,12.90
2008,08,31,09,18,12.90
2008,08,31,09,19,13.00
2008,08,31,09,20,13.00
2008,08,31,09,21,13.00
2008,08,31,09,22,13.00
2008,08,31,09,23,13.10
2008,08,31,09,24,13.10
2008,08,31,09,25,13.10
2008,08,31,09,26,13.10
2008,08,31,09,27,13.20
2008,08,31,09,28,13.20
2008,08,31,09,29,13.20
2008,08,31,09,30,13.20
2008,08,31,09,31,13.30
2008,08,31,09,32,13.30
2008,08,31,09,33,13.30
2008,08,31,09,34,13.30
2008,08,31,09,35,13.30
2008,08,31,09,36,13.30
2008,08,31,09,37,13.30
2008,08,31,09,38,13.30
2008,08,31,09,39,13.30
2008,08,31,09,40,13.30
2008,08,31,09,41,13.30
2008,08,31,09,42,13.30
2008,08,31,09,43,13.30
2008,08,31,09,44,13.30
2008,08,31,09,45,13.30
2008,08,31,09,46,13.40
2008,08,31,09,47,13.40
2008,08,31,09,48,13.40
2008,08,31,09,49,13.40
2008,08,31,09,50,13.40
2008,08,31,09,51,13.40
2008,08,31,09,52,13.40
2008,08,31,09,53,13.40
2008,08,31,09,54,13.40
2008,08,31,09,55,13.40
2008,08,31,09,56,13.30
2008,08,31,09,57,13.30
2008,08,31,09,58,13.30
2008,08,31,09,59,13.30
2008,08,31,10,00,13.30
2008,08,31,10,01,13.30
2008,08,31,10,02,13.30
2008,08,31,10,03,13.30
2008,08,31,10,04,13.30
2008,08,31,10,05,13.30
2008,08,31,10,06,13.40
2008,08,31,10,07,13.40
2008,08,31,10,08,13.40
2008,08,31,10,09,13.50
2008,08,31,10,10,13.50
2008,08,31,10,11,13.50
2008,08,31,10,12,13.60
2008,08,31,10,13,13.60
2008,08,31,10,14,13.60
2008,08,31,10,15,13.70
2008,08,31,10,16,13.70
2008,08,31,10,17,13.70
2008,08,31,10,18,13.70
2008,08,31,10,19,13.70
2008,08,31,10,20,13.70
2008,08,31,10,21,13.70
2008,08,31,10,22,13.70
2008,08,31,10,23,13.70
2008,08,31,10,24,13.60
2008,08,31,10,25,13.60
2008,08,31,10,26,13.60
2008,08,31,10,27,13.60
2008,08,31,10,28,13.60
2008,08,31,10,29,13.60
2008,08,31,10,30,13.60
2008,08,31,10,31,13.60
2008,08,31,10,32,13.70
2008,08,31,10,33,13.70
2008,08,31,10,34,13.80
2008,08,31,10,35,13.80
2008,08,31,10,36,13.80
2008,08,31,10,37,13.90
2008,08,31,10,38,13.90
2008,08,31,10,39,13.90
2008,08,31,10,40,14.00
2008,08,31,10,41,14.00
2008,08,31,10,42,14.00
2008,08,31,10,43,14.00
2008,08,31,10,44,14.10
2008,08,31,10,45,14.10
2008,08,31,10,46,14.10
2008,08,31,10,47,14.10
2008,08,31,10,48,14.20
2008,08,31,10,49,14.20
2008,08,31,10,50,14.30
2008,08,31,10,51,14.30
2008,08,31,10,52,14.40
2008,08,31,10,53,14.40
2008,08,31,10,54,14.50
2008,08,31,10,55,14.60
2008,08,31,10,56,14.60
2008,08,31,10,57,14.60
2008,08,31,10,58,14.60
2008,08,31,10,59,14.60
2008,08,31,11,00,14.60
2008,08,31,11,01,14.60
2008,08,31,11,02,14.70
2008,08,31,11,03,14.70
2008,08,31,11,04,14.70
2008,08,31,11,05,14.70
2008,08,31,11,06,14.70
2008,08,31,11,07,14.70
2008,08,31,11,08,14.70
2008,08,31,11,09,14.80
2008,08,31,11,10,14.80
2008,08,31,11,11,14.80
2008,08,31,11,12,14.90
2008,08,31,11,13,15.00
2008,08,31,11,14,15.00
2008,08,31,11,15,15.00
2008,08,31,11,16,15.20
2008,08,31,11,17,15.30
2008,08,31,11,18,15.40
2008,08,31,11,19,15.50
2008,08,31,11,20,15.60
2008,08,31,11,21,15.60
2008,08,31,11,22,15.60
2008,08,31,11,23,15.50
2008,08,31,11,24,15.50
2008,08,31,11,25,15.50
2008,08,31,11,26,15.60
2008,08,31,11,27,15.70
2008,08,31,11,28,15.80
2008,08,31,11,29,15.90
2008,08,31,11,30,16.00
2008,08,31,11,31,16.00
2008,08,31,11,32,16.10
2008,08,31,11,33,16.10
2008,08,31,11,34,16.10
2008,08,31,11,35,16.20
2008,08,31,11,36,16.20
2008,08,31,11,37,16.30
2008,08,31,11,38,16.30
2008,08,31,11,39,16.30
2008,08,31,11,40,16.30
2008,08,31,11,41,16.40
2008,08,31,11,42,16.50
2008,08,31,11,43,16.50
2008,08,31,11,44,16.60
2008,08,31,11,45,16.60
2008,08,31,11,46,16.60
2008,08,31,11,47,16.70
2008,08,31,11,48,16.70
2008,08,31,11,49,16.70
2008,08,31,11,50,16.70
2008,08,31,11,51,16.60
2008,08,31,11,52,16.60
2008,08,31,11,53,16.50
2008,08,31,11,54,16.40
2008,08,31,11,55,16.30
2008,08,31,11,56,16.20
2008,08,31,11,57,16.20
2008,08,31,11,58,16.10
2008,08,31,11,59,16.10
2008,08,31,12,00,16.20
2008,08,31,12,01,16.20
2008,08,31,12,02,16.20
2008,08,31,12,03,16.20
2008,08,31,12,04,16.30
2008,08,31,12,05,16.30
2008,08,31,12,06,16.30
2008,08,31,12,07,16.30
2008,08,31,12,08,16.30
2008,08,31,12,09,16.40
2008,08,31,12,10,16.40
2008,08,31,12,11,16.50
2008,08,31,12,12,16.60
2008,08,31,12,13,16.70
2008,08,31,12,14,16.80
2008,08,31,12,15,16.90
2008,08,31,12,16,17.00
2008,08,31,12,17,17.00
2008,08,31,12,18,17.00
2008,08,31,12,19,17.10
2008,08,31,12,20,17.10
2008,08,31,12,21,17.10
2008,08,31,12,22,17.20
2008,08,31,12,23,17.20
2008,08,31,12,24,17.20
2008,08,31,12,25,17.20
2008,08,31,12,26,17.20
2008,08,31,12,27,17.20
2008,08,31,12,28,17.20
2008,08,31,12,29,17.20
2008,08,31,12,30,17.20
2008,08,31,12,31,17.20
2008,08,31,12,32,17.20
2008,08,31,12,33,17.20
2008,08,31,12,34,17.10
2008,08,31,12,35,17.10
2008,08,31,12,36,17.00
2008,08,31,12,37,16.90
2008,08,31,12,38,16.80
2008,08,31,12,39,16.70
2008,08,31,12,40,16.60
2008,08,31,12,41,16.60
2008,08,31,12,42,16.60
2008,08,31,12,43,16.60
2008,08,31,12,44,16.70
2008,08,31,12,45,16.70
2008,08,31,12,46,16.80
2008,08,31,12,47,16.80
2008,08,31,12,48,16.80
2008,08,31,12,49,16.80
2008,08,31,12,50,16.80
2008,08,31,12,51,16.70
2008,08,31,12,52,16.70
2008,08,31,12,53,16.80
2008,08,31,12,54,16.80
2008,08,31,12,55,16.90
2008,08,31,12,56,16.90
2008,08,31,12,57,16.90
2008,08,31,12,58,17.00
2008,08,31,12,59,17.10
2008,08,31,13,00,17.10
2008,08,31,13,01,17.20
2008,08,31,13,02,17.20
2008,08,31,13,03,17.20
2008,08,31,13,04,17.30
2008,08,31,13,05,17.30
2008,08,31,13,06,17.30
2008,08,31,13,07,17.30
2008,08,31,13,08,17.20
2008,08,31,13,09,17.20
2008,08,31,13,10,17.20
2008,08,31,13,11,17.10
2008,08,31,13,12,17.20
2008,08,31,13,13,17.20
2008,08,31,13,14,17.30
2008,08,31,13,15,17.30
2008,08,31,13,16,17.40
2008,08,31,13,17,17.40
2008,08,31,13,18,17.50
2008,08,31,13,19,17.60
2008,08,31,13,20,17.60
2008,08,31,13,21,17.50
2008,08,31,13,22,17.50
2008,08,31,13,23,17.50
2008,08,31,13,24,17.40
2008,08,31,13,25,17.40
2008,08,31,13,26,17.40
2008,08,31,13,27,17.30
2008,08,31,13,28,17.30
2008,08,31,13,29,17.30
2008,08,31,13,30,17.20
2008,08,31,13,31,17.20
2008,08,31,13,32,17.10
2008,08,31,13,33,17.20
2008,08,31,13,34,17.20
2008,08,31,13,35,17.20
2008,08,31,13,36,17.20
2008,08,31,13,37,17.10
2008,08,31,13,38,17.10
2008,08,31,13,39,17.10
2008,08,31,13,40,17.10
2008,08,31,13,41,17.20
2008,08,31,13,42,17.20
2008,08,31,13,43,17.30
2008,08,31,13,44,17.30
2008,08,31,13,45,17.30
2008,08,31,13,46,17.30
2008,08,31,13,47,17.30
2008,08,31,13,48,17.30
2008,08,31,13,49,17.30
2008,08,31,13,50,17.30
2008,08,31,13,51,17.40
2008,08,31,13,52,17.40
2008,08,31,13,53,17.40
2008,08,31,13,54,17.30
2008,08,31,13,55,17.10
2008,08,31,13,56,17.10
2008,08,31,13,57,17.10
2008,08,31,13,58,17.00
2008,08,31,13,59,16.90
2008,08,31,14,00,16.90
2008,08,31,14,01,17.00
2008,08,31,14,02,17.00
2008,08,31,14,03,17.10
2008,08,31,14,04,17.20
2008,08,31,14,05,17.30
2008,08,31,14,06,17.30
2008,08,31,14,07,17.40
2008,08,31,14,08,17.40
2008,08,31,14,09,17.40
2008,08,31,14,10,17.40
2008,08,31,14,11,17.30
2008,08,31,14,12,17.30
2008,08,31,14,13,17.30
2008,08,31,14,14,17.20
2008,08,31,14,15,17.20
2008,08,31,14,16,17.20
2008,08,31,14,17,17.10
2008,08,31,14,18,17.00
2008,08,31,14,19,17.00
2008,08,31,14,20,17.00
2008,08,31,14,21,17.10
2008,08,31,14,22,17.10
2008,08,31,14,23,17.10
2008,08,31,14,24,17.00
2008,08,31,14,25,16.90
2008,08,31,14,26,16.80
2008,08,31,14,27,16.80
2008,08,31,14,28,16.80
2008,08,31,14,29,16.90
2008,08,31,14,30,17.00
2008,08,31,14,31,17.00
2008,08,31,14,32,17.10
2008,08,31,14,33,17.10
2008,08,31,14,34,17.20
2008,08,31,14,35,17.20
2008,08,31,14,36,17.30
2008,08,31,14,37,17.30
2008,08,31,14,38,17.40
2008,08,31,14,39,17.40
2008,08,31,14,40,17.50
2008,08,31,14,41,17.60
2008,08,31,14,42,17.60
2008,08,31,14,43,17.60
2008,08,31,14,44,17.60
2008,08,31,14,45,17.50
2008,08,31,14,46,17.40
2008,08,31,14,47,17.30
2008,08,31,14,48,17.30
2008,08,31,14,49,17.20
2008,08,31,14,50,17.30
2008,08,31,14,51,17.40
2008,08,31,14,52,17.50
2008,08,31,14,53,17.50
2008,08,31,14,54,17.60
2008,08,31,14,55,17.60
2008,08,31,14,56,17.60
2008,08,31,14,57,17.60
2008,08,31,14,58,17.60
2008,08,31,14,59,17.70
2008,08,31,15,00,17.70
2008,08,31,15,01,17.80
2008,08,31,15,02,17.80
2008,08,31,15,03,17.80
2008,08,31,15,04,17.70
2008,08,31,15,05,17.60
2008,08,31,15,06,17.50
2008,08,31,15,07,17.40
2008,08,31,15,08,17.40
2008,08,31,15,09,17.40
2008,08,31,15,10,17.40
2008,08,31,15,11,17.40
2008,08,31,15,12,17.40
2008,08,31,15,13,17.40
2008,08,31,15,14,17.30
2008,08,31,15,15,17.30
2008,08,31,15,16,17.20
2008,08,31,15,17,17.30
2008,08,31,15,18,17.30
2008,08,31,15,19,17.30
2008,08,31,15,20,17.40
2008,08,31,15,21,17.40
2008,08,31,15,22,17.30
2008,08,31,15,23,17.40
2008,08,31,15,24,17.40
2008,08,31,15,25,17.40
2008,08,31,15,26,17.40
2008,08,31,15,27,17.40
2008,08,31,15,28,17.40
2008,08,31,15,29,17.40
2008,08,31,15,30,17.50
2008,08,31,15,31,17.50
2008,08,31,15,32,17.40
2008,08,31,15,33,17.30
2008,08,31,15,34,17.10
2008,08,31,15,35,17.00
2008,08,31,15,36,16.90
2008,08,31,15,37,16.80
2008,08,31,15,38,16.80
2008,08,31,15,39,16.80
2008,08,31,15,40,16.90
2008,08,31,15,41,16.90
2008,08,31,15,42,16.90
2008,08,31,15,43,16.80
2008,08,31,15,44,16.90
2008,08,31,15,45,17.00
2008,08,31,15,46,17.00
2008,08,31,15,47,17.10
2008,08,31,15,48,17.10
2008,08,31,15,49,17.00
2008,08,31,15,50,17.10
2008,08,31,15,51,17.20
2008,08,31,15,52,17.20
2008,08,31,15,53,17.30
2008,08,31,15,54,17.40
2008,08,31,15,55,17.40
2008,08,31,15,56,17.30
2008,08,31,15,57,17.30
2008,08,31,15,58,17.30
2008,08,31,15,59,17.20
2008,08,31,16,00,17.30
2008,08,31,16,01,17.30
2008,08,31,16,02,17.20
2008,08,31,16,03,17.20
2008,08,31,16,04,17.20
2008,08,31,16,05,17.30
2008,08,31,16,06,17.30
2008,08,31,16,07,17.30
2008,08,31,16,08,17.30
2008,08,31,16,09,17.30
2008,08,31,16,10,17.30
2008,08,31,16,11,17.30
2008,08,31,16,12,17.30
2008,08,31,16,13,17.20
2008,08,31,16,14,17.20
2008,08,31,16,15,17.10
2008,08,31,16,16,17.00
2008,08,31,16,17,17.00
2008,08,31,16,18,17.00
2008,08,31,16,19,17.00
2008,08,31,16,20,17.00
2008,08,31,16,21,17.10
2008,08,31,16,22,17.20
2008,08,31,16,23,17.20
2008,08,31,16,24,17.30
2008,08,31,16,25,17.30
2008,08,31,16,26,17.40
2008,08,31,16,27,17.50
2008,08,31,16,28,17.50
2008,08,31,16,29,17.50
2008,08,31,16,30,17.50
2008,08,31,16,31,17.50
2008,08,31,16,32,17.40
2008,08,31,16,33,17.40
2008,08,31,16,34,17.40
2008,08,31,16,35,17.50
2008,08,31,16,36,17.50
2008,08,31,16,37,17.60
2008,08,31,16,38,17.60
2008,08,31,16,39,17.60
2008,08,31,16,40,17.70
2008,08,31,16,41,17.70
2008,08,31,16,42,17.80
2008,08,31,16,43,17.90
2008,08,31,16,44,18.00
2008,08,31,16,45,18.00
2008,08,31,16,46,18.10
2008,08,31,16,47,18.20
2008,08,31,16,48,18.30
2008,08,31,16,49,18.30
2008,08,31,16,50,18.20
2008,08,31,16,51,18.20
2008,08,31,16,52,18.10
2008,08,31,16,53,18.10
2008,08,31,16,54,18.00
2008,08,31,16,55,18.00
2008,08,31,16,56,18.00
2008,08,31,16,57,18.00
2008,08,31,16,58,17.90
2008,08,31,16,59,17.90
2008,08,31,17,00,17.80
2008,08,31,17,01,17.80
2008,08,31,17,02,17.80
2008,08,31,17,03,17.80
2008,08,31,17,04,17.80
2008,08,31,17,05,17.80
2008,08,31,17,06,17.80
2008,08,31,17,07,17.80
2008,08,31,17,08,17.80
2008,08,31,17,09,17.70
2008,08,31,17,10,17.70
2008,08,31,17,11,17.70
2008,08,31,17,12,17.70
2008,08,31,17,13,17.70
2008,08,31,17,14,17.70
2008,08,31,17,15,17.70
2008,08,31,17,16,17.80
2008,08,31,17,17,17.90
2008,08,31,17,18,18.00
2008,08,31,17,19,18.10